MIDORI II (ADEOS-II) (27597 NORAD) Tracking and Keplerian Element Data

This shows tracking and keplerian element data for the satellite.

Feedback or suggestion? Click here.




ElementValue
Catalog27597
NameMIDORI II (ADEOS-II)
Epoch Orbit83327
Epoch Day348.92601551
Epoch Year2018
RAAN302.6656
Inclination98.4473
Eccentricity0.0001605
Argument of Perigee122.2012
Mean Anonmoly237.9326
Mean Motion14.27377374
Decay Rate3.6E-07
L11 27597U 02056A 18348.92601551 .00000036 00000-0 31959-4 0 9996
L22 27597 98.4473 302.6656 0001605 122.2012 237.9326 14.27377374833277

Live tracking and technical data element details for MIDORI II (ADEOS-II) (NORAD 27597). MIDORI II (ADEOS-II) can be tracked NOW for your location showing map with azimuth and elevation plus other details from your city location.

Track the satellite on the map from your city or location and see movement details for azimuth, elevation, latitude, longitude, range, height, and movement on the map or in text.







IsCatalogInMostPopularTable: catalog: 27597, numindb: 36
Update: records affected: 1



GetName: 27597 MIDORI II (ADEOS-II)

Hit Count: updated at: Sat, 15 Dec 2018 14:48:21 GMT